Location: Caixon
(43.4106°N, 0.0273°E)
Time: 22:47:07
(UTC+00:00)

USA 234 - Pass Details

Date: 16 October 2021
Orbit: 1098 x 1110 km, 123.0° (Epoch: 25 November)

Event Time Altitude Azimuth Distance (km) Brightness Sun altitude
Rises 05:22:44 0° 50° (NE) 3,918 7.0 -10.3°
Reaches altitude 10° 05:25:23 10° 43° (NE) 2,959 6.1 -9.8°
Maximum altitude 05:31:17 38° 338° (NNW) 1,621 4.0 -8.7°
Drops below altitude 10° 05:37:10 10° 274° (W) 2,959 4.8 -7.7°
Enters shadow 05:37:28 - 273° (W) 3,063 4.9 -7.6°
